This demonstration page uses our WeatherBlox Daily Observations layout. Learn more.

Left ArrowRight Arrow

39.08367, -84.50855

Hourly Observations for October 3, 2018

Temp ( °F °C ) Dew Point ( °F °C ) Humidity (%) Winds ( mph kmh ) Pressure ( in mb ) Visibility ( mi km ) Precip ( " mm )
12:53 am 00:53 Clear 69 20.6 69 20.6 100 100 N N/A 30.10 1019 8 13 N/A
1:53 am 01:53 Clear with Mist and Fog 68 20 68 20 100 100 N N/A 30.10 1019 6 10 N/A
2:19 am 02:19 Clear with Mist and Fog 67 19.4 67 19.4 100 100 N N/A 30.09 1019 2 2 N/A
2:31 am 02:31 Clear with Mist and Fog 67 19.4 67 19.4 100 100 N N/A 30.09 1019 3 5 N/A
2:46 am 02:46 Clear with Mist and Fog 67 19.4 67 19.4 100 100 N N/A 30.09 1019 2 2 N/A
2:53 am 02:53 Clear with Fog 68 20 68 20 100 100 N N/A 30.10 1019 1 1 N/A
3:21 am 03:21 Clear with Fog 67 19.4 67 19.4 100 100 N N/A 30.09 1019 0 0 N/A
3:28 am 03:28 Clear with Fog 67 19.4 67 19.4 100 100 N N/A 30.09 1019 1 1 N/A
3:39 am 03:39 Clear with Mist and Fog 67 19.4 67 19.4 100 100 N N/A 30.06 1018 3 4 N/A
3:42 am 03:42 Mostly Clear with Mist and Fog 67 19.4 67 19.4 100 100 N N/A 30.06 1018 3 5 N/A
3:46 am 03:46 Mostly Clear with Mist and Fog 66 18.9 66 18.9 100 100 N N/A 30.06 1018 2 3 N/A
3:53 am 03:53 Clear with Mist and Fog 67 19.4 67 19.4 100 100 N N/A 30.09 1019 1 2 N/A
3:58 am 03:58 Mostly Cloudy with Mist and Fog 67 19.4 67 19.4 100 100 N N/A 30.06 1018 1 2 N/A
4:05 am 04:05 Mostly Cloudy with Fog 66 18.9 66 18.9 100 100 N N/A 30.06 1018 1 1 N/A
4:12 am 04:12 Mostly Cloudy with Fog 65 18.3 65 18.3 100 100 N N/A 30.06 1018 0 0 N/A
4:28 am 04:28 Mostly Cloudy with Fog 66 18.9 66 18.9 100 100 N N/A 30.06 1018 1 1 N/A
4:38 am 04:38 Cloudy with Mist and Fog 67 19.4 67 19.4 100 100 N N/A 30.06 1018 1 1 N/A
4:53 am 04:53 Mostly Cloudy with Fog 66 18.9 66 18.9 100 100 N N/A 30.09 1019 0 0 N/A
5:12 am 05:12 Mostly Cloudy with Fog 66 18.9 66 18.9 100 100 N N/A 30.06 1018 0 0 N/A
5:53 am 05:53 Mostly Cloudy with Fog 66 18.9 66 18.9 100 100 N N/A 30.09 1019 0 0 N/A
6:53 am 06:53 Mostly Cloudy with Fog 66 18.9 66 18.9 100 100 N N/A 30.09 1019 0 0 N/A
7:53 am 07:53 Mostly Cloudy with Fog 66 18.9 66 18.9 100 100 N N/A 30.09 1019 5 8 N/A
8:53 am 08:53 Cloudy with Fog 68 20 68 20 100 100 N N/A 30.09 1019 1 1 N/A
9:03 am 09:03 Cloudy with Mist and Fog 69 20.6 69 20.6 100 100 N N/A 30.06 1018 2 3 N/A
9:13 am 09:13 Cloudy with Mist and Fog 69 20.6 69 20.6 100 100 N N/A 30.06 1018 4 6 N/A
9:53 am 09:53 Cloudy with Mist and Fog 71 21.7 71 21.7 100 100 S 6 9 30.10 1019 4 6 N/A
10:34 am 10:34 Mostly Cloudy with Mist and Fog 74 23.3 73 22.8 97 97 SSE 7 11 30.09 1019 5 8 N/A
10:45 am 10:45 Mostly Cloudy with Mist and Fog 74 23.3 72 22.2 94 94 S 8 13 30.09 1019 5 8 N/A
10:53 am 10:53 Mostly Cloudy with Mist and Fog 75 23.9 73 22.8 94 94 S 8 13 30.10 1019 5 8 N/A
11:07 am 11:07 Partly Cloudy with Mist and Fog 75 23.9 72 22.2 90 90 S 8 13 30.09 1019 6 10 N/A
11:53 am 11:53 Mostly Sunny 79 26.1 73 22.8 82 82 S 7 11 30.09 1019 8 13 N/A
12:53 pm 12:53 Partly Cloudy 81 27.2 73 22.8 77 77 SSW 5 7 30.06 1018 10 16 N/A
1:53 pm 13:53 Partly Cloudy 85 29.4 71 21.7 63 63 SW 9 15 30.03 1017 10 16 N/A
2:53 pm 14:53 Partly Cloudy 85 29.4 71 21.7 63 63 SSW 10 17 30.01 1016 10 16 N/A
3:53 pm 15:53 Partly Cloudy 85 29.4 71 21.7 63 63 S 10 17 29.98 1015 10 16 N/A
4:53 pm 16:53 Partly Cloudy 84 28.9 69 20.6 61 61 SSW 12 19 29.97 1015 10 16 N/A
5:53 pm 17:53 Sunny 83 28.3 70 21.1 65 65 SSW 12 19 29.96 1015 10 16 N/A
6:53 pm 18:53 Mostly Sunny 79 26.1 71 21.7 77 77 S 8 13 29.96 1015 10 16 N/A
7:53 pm 19:53 Clear 74 23.3 70 21.1 88 88 SSW 6 9 29.96 1015 10 16 N/A
8:53 pm 20:53 Clear 74 23.3 70 21.1 88 88 SSW 7 11 29.97 1015 10 16 N/A
9:53 pm 21:53 Clear 74 23.3 70 21.1 88 88 SSW 7 11 29.98 1015 10 16 N/A
10:53 pm 22:53 Clear 73 22.8 70 21.1 90 90 SSW 7 11 29.98 1015 10 16 N/A
11:53 pm 23:53 Clear 73 22.8 70 21.1 90 90 SSW 7 11 29.98 1015 10 16 N/A

Powered by AerisWeather